Simultaneous Nadir Overpasses (SNOs) Predictions

Prediction of SNOs between GOES-16 and NOAA-19 Satellite Orbit:

Table of predicted SNOs for the next 14.0 days since TLE Epoch: 10/5/2024
Index Date Time (GOES-16) GOES-16 Lat,Lon NOAA-19 Lat,Lon Distance(km) Time Diff (sec)
1 10/06/2024 02:42:03 0.07, -75.20 -0.81, -78.95 428.88 80
2 10/07/2024 02:29:39 0.07, -75.20 -0.11, -75.94 84.36 80
3 10/08/2024 02:19:54 0.07, -75.20 0.59, -72.92 260.25 80
4 10/10/2024 14:36:22 -0.06, -75.22 0.45, -77.48 257.63 80
5 10/11/2024 14:26:37 -0.06, -75.23 -0.21, -74.46 87.34 80
6 10/12/2024 14:14:12 -0.05, -75.24 -0.93, -71.45 432.40 80
7 10/14/2024 02:43:06 0.05, -75.24 -0.80, -79.03 432.49 80
8 10/15/2024 02:30:41 0.05, -75.25 -0.11, -76.01 86.72 80
9 10/16/2024 02:20:56 0.05, -75.26 0.60, -72.99 259.29 80
10 10/18/2024 14:40:02 -0.05, -75.30 0.44, -77.55 255.52 80
